This is the latest recevied weather packets stored in our database for station/object N2ZVN. If no packets are shown the sender has not sent any weather packets the latest 10 day(s).
| Time | Temp. | Humidity | Pressure | Rain* | Wind** | Luminosity | Snow |
|---|---|---|---|---|---|---|---|
| 1777886711 | 11.67° C | 50% | 1006.7 hPa | 0 mm | - | 0 W/m² | - |
| 1777886409 | 11.67° C | 50% | 1006.9 hPa | 0 mm | - | 0 W/m² | - |
| 1777886107 | 11.67° C | 50% | 1006.8 hPa | 0 mm | - | 0 W/m² | - |
| 1777885804 | 11.67° C | 50% | 1006.9 hPa | 0 mm | - | 0 W/m² | - |
| 1777885502 | 11.67° C | 50% | 1007.1 hPa | 0 mm | - | 0 W/m² | - |
| 1777885200 | 11.67° C | 50% | 1007.1 hPa | 0 mm | - | 0 W/m² | - |
| 1777884897 | 11.11° C | 50% | 1007.2 hPa | 0 mm | - | 0 W/m² | - |
| 1777884594 | 11.11° C | 50% | 1007.1 hPa | 0 mm | - | 0 W/m² | - |
| 1777884290 | 11.11° C | 51% | 1007.2 hPa | 0 mm | - | 0 W/m² | - |
| 1777883986 | 11.11° C | 51% | 1007.3 hPa | 0 mm | - | 0 W/m² | - |
| 1777883684 | 11.67° C | 54% | 1007.3 hPa | 0 mm | - | 0 W/m² | - |
| 1777883379 | 11.67° C | 54% | 1007.6 hPa | 0 mm | - | 0 W/m² | - |
| 1777883077 | 11.67° C | 54% | 1007.3 hPa | 0 mm | - | 0 W/m² | - |
| 1777882773 | 11.67° C | 54% | 1007.7 hPa | 0 mm | - | 0 W/m² | - |
| 1777882470 | 11.67° C | 54% | 1007.7 hPa | 0 mm | - | 0 W/m² | - |
| 1777882166 | 11.67° C | 56% | 1007.6 hPa | 0 mm | - | 0 W/m² | - |
| 1777881863 | 11.67° C | 56% | 1007.4 hPa | 0 mm | - | 0 W/m² | - |
| 1777881559 | 11.67° C | 57% | 1007.6 hPa | 0 mm | - | 0 W/m² | - |
| 1777881256 | 11.67° C | 59% | 1007.9 hPa | 0 mm | - | 0 W/m² | - |
| 1777880954 | 11.67° C | 59% | 1007.9 hPa | 0 mm | - | 0 W/m² | - |
| 1777880652 | 11.67° C | 60% | 1007.8 hPa | 0 mm | - | 0 W/m² | - |
| 1777880350 | 11.67° C | 58% | 1007.7 hPa | 0 mm | - | 0 W/m² | - |
| 1777880048 | 11.67° C | 58% | 1007.8 hPa | 0 mm | - | 0 W/m² | - |
| 1777879746 | 11.67° C | 57% | 1007.9 hPa | 0 mm | - | 0 W/m² | - |
| 1777879443 | 11.67° C | 57% | 1007.9 hPa | 0 mm | - | 0 W/m² | - |
* Rain latest hour (hover to see other rain measurements)
** Current wind speed in m/s (hover to see current wind gust speed)